Lexington Weather

Lexington, Massachusetts, USA

44°F
5/12/2021 4:48am 
  • Lexington Conditions: Clear
  • Temperature: 44.4°F / 6.9°CColder 0.2°F than last hour.
  • Dew Point: 33.4°FIncreased 1.0°Fsince last hour.
  • Relative Humidity: 65%Increased 3.0% since last hour.
  • Wind: Wind from W W 3 mph, 10-min avg: 1 mph, gust: 3 mph
  • Barometer: 29.92 in Steady
  • Visibility: 10 miles
  • Rain Today: 0.00 in
  •   

Regional Weather Roundup
for Boston / Norton, MA

        
000
ASUS41 KBOX 100604
RWRBOX

REGIONAL WEATHER ROUNDUP
NATIONAL WEATHER SERVICE BOSTON/NORTON MA
200 AM EDT MON MAY 10 2021

NOTE:  "FAIR" INDICATES FEW OR NO CLOUDS BELOW 12,000 FEET WITH NO 
SIGNIFICANT WEATHER AND/OR OBSTRUCTIONS TO VISIBILITY.

MAZALL-100700-
EASTERN MASSACHUSETTS
  
CITY           SKY/WX    TMP DP  RH WIND       PRES   REMARKS
BOSTON         LGT RAIN  52  44  74 S6        29.84F                  
6HR MIN TEMP:  51; 6HR MAX TEMP:  64; 6HR PCP:  0.01;                

BEVERLY        LGT RAIN  52  47  83 CALM      29.82F                  
LAWRENCE       LGT RAIN  51  46  83 SE3       29.84F                  
BEDFORD        LGT RAIN  50  46  86 SE5       29.82F                  
BLUE HILL        N/A     46  44  93 SE7       29.81F                  
NORWOOD        LGT RAIN  49  45  86 S3        29.83F                  
MARSHFIELD     DRIZZLE   52  48  87 CALM      29.83F                  
PLYMOUTH       LGT RAIN  48  45  89 CALM      29.83F                  
TAUNTON        RAIN      48  46  93 CALM      29.84F FOG              
NEW BEDFORD    RAIN      48  46  93 S5        29.83F FOG              
$$

MAZALL-100700-
CAPE COD AND THE ISLANDS
  
CITY           SKY/WX    TMP DP  RH WIND       PRES   REMARKS
FALMOUTH       RAIN      46  46 100 S8        29.85F                  
HYANNIS        RAIN      49  46  90 VRB6      29.84F FOG              
CHATHAM        LGT RAIN  48  45  89 S8        29.88F                  
PROVINCETOWN   LGT RAIN  49  46  90 S7        29.86F                  
NANTUCKET      RAIN      46  44  93 E8        29.86F FOG              
MARTHAS VNYRD  HVY RAIN  47  45  93 SE8       29.84F FOG              
$$
 
MAZALL-100700-
CENTRAL AND WESTERN MASSACHUSETTS
  
CITY           SKY/WX    TMP DP  RH WIND       PRES   REMARKS
WORCESTER      LGT RAIN  46  43  89 SE5       29.81F                  
6HR MIN TEMP:  46; 6HR MAX TEMP:  51; 6HR PCP:  0.08;                

FITCHBURG      RAIN      49  46  90 CALM      29.81F                  
ORANGE         LGT RAIN  48  46  93 CALM      29.81F                  
SPRINGFIELD    LGT RAIN  47  46  99 S3        29.80F                  
WESTFIELD      RAIN      47  46  97 S3        29.80F FOG              
NORTH ADAMS    LGT RAIN  47  47 100 CALM      29.79F                  
PITTSFIELD     LGT RAIN  44  42  93 CALM      29.77F FOG              
$$
 
RIZALL-100700-
RHODE ISLAND
  
CITY           SKY/WX    TMP DP  RH WIND       PRES   REMARKS
PROVIDENCE     RAIN      48  46  93 CALM      29.84F FOG              
6HR MIN TEMP:  47; 6HR MAX TEMP:  57; 6HR PCP:  0.40;                

NEWPORT        LGT RAIN  46  45  96 SE7       29.82F FOG              
BLOCK ISLAND   LGT RAIN  44  42  93 E9        29.81F                  
SMITHFIELD       N/A     46  46 100 VRB5      29.83F                  
WESTERLY       RAIN      45  44  97 E8        29.82F FOG              
$$
 
CTZALL-100700-
CONNECTICUT
  
CITY           SKY/WX    TMP DP  RH WIND       PRES   REMARKS
BRADLEY INTL   RAIN      47  45  93 S5        29.81F FOG              
6HR MIN TEMP:  47; 6HR MAX TEMP:  52; 6HR PCP:  0.47;                

HARTFORD       RAIN      48  45  89 CALM      29.82F FOG              
BRIDGEPORT     LGT RAIN  47  44  90 E9        29.79F                  
DANBURY        RAIN      47  43  86 E7        29.79F FOG              
GROTON         RAIN      46  45  96 E9        29.81F FOG              
NEW HAVEN      LGT RAIN  48  45  89 E7        29.79F FOG              
CHESTER        LGT RAIN N/A N/A N/A VRB6      29.80F                  
MERIDEN        RAIN      47  44  90 E3        29.81F                  
WILLIMANTIC    RAIN      46  45  96 E3        29.82F FOG              
OXFORD         LGT RAIN  44  44 100 E7        29.79F FOG              
$$

MEZ002-015-021-024-NHZ003-005-008-011-012-014-VTZ005-008-100700-
NORTHERN NEW ENGLAND
  
CITY           SKY/WX    TMP DP  RH WIND       PRES   REMARKS
PORTLAND ME    CLOUDY    49  42  77 CALM      29.83F                  
6HR MIN TEMP:  49; 6HR MAX TEMP:  55;                                

BANGOR ME      MOCLDY    45  37  73 CALM      29.83F                  
CONCORD NH     CLOUDY    50  39  66 CALM      29.82F                  
MANCHESTER NH  LGT RAIN  52  43  71 SE3       29.81F                  
NASHUA NH      LGT RAIN  49  49 100 CALM      29.82F                  
PORTSMOUTH NH  CLOUDY    54  35  50 SW5       29.83F                  
JAFFREY NH     LGT RAIN  47  44  90 CALM      29.80F                  
KEENE NH       LGT RAIN  47  45  93 CALM      29.81F                  
BURLINGTON VT  CLOUDY    50  43  77 NE5       29.83F                  
MT. WASHINGTON NOT AVBL                                               
$$

NYZ052-076-100700-
EASTERN NEW YORK
  
CITY           SKY/WX    TMP DP  RH WIND       PRES   REMARKS
ALBANY         LGT RAIN  43  43 100 W3        29.81F FOG              
6HR MIN TEMP:  43; 6HR MAX TEMP:  50; 6HR PCP:  0.06;                

NEW YORK CITY  LGT RAIN  48  44  86 E10       29.75F                  
6HR MIN TEMP:  48; 6HR MAX TEMP:  50; 6HR PCP:  0.27;                

$$
 
ANZALL-100700-
MARINE OBSERVATIONS
  
STATION/POSITION TIME  TEMP    WIND        PRES    VSBY  WAVE
                       AIR SEA DIR/SP/G                  HT/PER
                 (UTC) (F)     (DEG/KT/KT) (MB)    (MI)  (FT/S)
BOSTON BUOY      0540   49 48  140/  6/  8 1010.8F
BUZZARDS BAY     0500          150/ 11/ 12 1012.8F
NANTUCKET SOUND  0540      53                N/A
MASS BAY-STELLWA 0504   51     210/  6/  6 1010.4F  1 7/8  2/ 4
ISLE OF SHOALS   0500   54     240/ 13/ 14 1010.5F
S OF BLOCK IS    0526      49                N/A           3/ 5
$$

......................KEY.........................
  SKY/WX - SKY CONDITION/PRESENT WEATHER
  TMP    - TEMPERATURE IN FAHRENHEIT
  DWPT   - DEWPOINT IN FAHRENHEIT
  RH     - RELATIVE HUMIDITY IN PERCENT
  WIND   - DIRECTION AND SPEED IN MPH
  PRES   - MEAN SEA LEVEL PRESSURE IN INCHES OF HG
  WCI    - WIND CHILL INDEX
  VSB    - VISIBILITY IN MILES
  HX     - HEAT INDEX
  TC     - TEMPERATURE IN CELSIUS
  VRB    - VARIABLE WIND DIRECTION
  N/A    - NOT AVAILABLE
  
      

Other recent Regional Weather Roundups

Wed May 12, 4:04am

Wed May 12, 3:04am

Wed May 12, 2:04am

Wed May 12, 1:04am

Wed May 12, 12:05am

Tue May 11, 11:05pm

Tue May 11, 10:04pm

Tue May 11, 9:05pm

Tue May 11, 8:05pm

Tue May 11, 7:04pm

Tue May 11, 6:04pm

Tue May 11, 5:04pm

Tue May 11, 4:05pm

Tue May 11, 3:04pm

Tue May 11, 2:05pm

Tue May 11, 1:04pm

Tue May 11, 12:05pm

Tue May 11, 11:05am

Tue May 11, 10:04am

Tue May 11, 9:04am

Tue May 11, 8:04am

Tue May 11, 7:05am

Tue May 11, 6:04am

Tue May 11, 5:04am

Tue May 11, 4:04am

Tue May 11, 3:04am

Tue May 11, 2:04am

Tue May 11, 1:04am

Tue May 11, 12:04am

Mon May 10, 11:04pm

Mon May 10, 10:04pm

Mon May 10, 9:05pm

Mon May 10, 8:04pm

Mon May 10, 7:05pm

Mon May 10, 6:04pm

Mon May 10, 5:04pm

Mon May 10, 4:04pm

Mon May 10, 3:04pm

Mon May 10, 2:04pm

Mon May 10, 1:04pm

Mon May 10, 12:04pm

Mon May 10, 11:05am

Mon May 10, 10:04am

Mon May 10, 9:04am

Mon May 10, 8:04am

Mon May 10, 7:04am

Mon May 10, 6:04am

Mon May 10, 5:05am

Mon May 10, 4:04am

Mon May 10, 3:04am

Mon May 10, 1:04am

Mon May 10, 12:04am

Sun May 9, 11:04pm

Sun May 9, 10:04pm

Sun May 9, 9:04pm

Sun May 9, 8:04pm

Sun May 9, 7:05pm

Sun May 9, 6:04pm

Sun May 9, 5:04pm

Sun May 9, 4:04pm

Sun May 9, 3:04pm

Sun May 9, 2:04pm

Sun May 9, 1:05pm

Sun May 9, 12:04pm

Sun May 9, 11:05am

Sun May 9, 10:04am

Sun May 9, 9:04am

Sun May 9, 8:04am

Sun May 9, 7:04am

Sun May 9, 6:04am

Sun May 9, 5:04am

Sun May 9, 4:04am

Sun May 9, 3:04am

Sun May 9, 2:04am

Sun May 9, 1:05am

Sun May 9, 12:04am

Sat May 8, 11:05pm

Sat May 8, 10:04pm

Sat May 8, 9:05pm

Sat May 8, 8:04pm

Sat May 8, 7:04pm

Sat May 8, 6:04pm

Sat May 8, 5:05pm

Sat May 8, 4:04pm

Sat May 8, 3:05pm

Sat May 8, 2:05pm

Sat May 8, 1:05pm

Sat May 8, 12:04pm

Sat May 8, 11:05am

Sat May 8, 10:04am

Sat May 8, 9:04am

Sat May 8, 8:04am

Sat May 8, 7:04am

Sat May 8, 6:04am

Sat May 8, 5:04am

Sat May 8, 4:04am

Sat May 8, 3:04am

Sat May 8, 2:04am

Sat May 8, 1:05am

Sat May 8, 12:04am

Fri May 7, 11:04pm

Fri May 7, 10:05pm

Fri May 7, 9:04pm

Fri May 7, 8:04pm

Fri May 7, 7:05pm

Fri May 7, 6:04pm

Fri May 7, 5:05pm

Fri May 7, 4:04pm

Fri May 7, 3:04pm

Fri May 7, 2:05pm

Fri May 7, 1:04pm

Fri May 7, 12:04pm

Fri May 7, 11:05am

Fri May 7, 10:04am

Fri May 7, 9:04am

Fri May 7, 8:05am

Fri May 7, 7:04am

Fri May 7, 6:04am

Fri May 7, 5:04am

Fri May 7, 4:04am

Fri May 7, 3:04am

Fri May 7, 2:05am

Fri May 7, 1:04am

Fri May 7, 12:05am

Thu May 6, 11:04pm

Thu May 6, 10:04pm

Thu May 6, 9:05pm

Thu May 6, 8:04pm

Thu May 6, 7:04pm

Thu May 6, 6:04pm

Thu May 6, 5:05pm

Thu May 6, 4:04pm

Thu May 6, 3:04pm

Thu May 6, 2:05pm

Thu May 6, 1:04pm

Thu May 6, 12:04pm

Thu May 6, 11:04am

Thu May 6, 10:04am

Thu May 6, 9:04am

Thu May 6, 8:04am

Thu May 6, 7:04am

Thu May 6, 6:04am

Thu May 6, 5:04am

Thu May 6, 4:04am

Thu May 6, 3:04am

Thu May 6, 2:05am

Thu May 6, 1:04am

Thu May 6, 12:05am

Wed May 5, 11:04pm

Wed May 5, 10:04pm

Wed May 5, 9:05pm

Wed May 5, 8:04pm

Wed May 5, 7:05pm

Wed May 5, 6:04pm

Wed May 5, 5:04pm

Wed May 5, 4:04pm

Wed May 5, 3:04pm

Wed May 5, 2:05pm

Wed May 5, 1:05pm

Wed May 5, 12:04pm

Wed May 5, 11:05am

Wed May 5, 10:04am

Wed May 5, 9:04am

Wed May 5, 8:04am

Wed May 5, 7:04am

Wed May 5, 6:05am

Wed May 5, 5:04am

Meta data:

ID: 32711447-9eb2-486a-9804-4c5136d22265
Link: https://api.weather.gov/products/32711447-9eb2-486a-9804-4c5136d22265